User: anonymous   Login
Location: Unspecified
(57.6483°N, 3.3184°W)
Time: 08:26:29
(UTC+01:00)
Language:

POLYITAN 1 - Orbit

View from above orbital plane
View from above orbital plane
View from above satellite
View from above satellite

Ground track
Ground track

The orbit data is extracted from the following two-line orbital elements,

1 40042U 14033AJ  21128.76186544  .00000370  00000-0  45189-4 0  9997
2 40042  97.9413  60.1197 0013426 304.5567  55.4383 14.89217660373404
Epoch (UTC): 08 May 2021 18:17:05
Eccentricity: 0.0013426
inclination: 97.9413°
perigee height: 591 km
apogee height: 610 km
right ascension of ascending node: 60.1197°
argument of perigee: 304.5567°
revolutions per day: 14.89217660
mean anomaly at epoch: 55.4383°
orbit number at epoch: 37340

The dashed part of the orbit path shows where the satellite is in the earth's shadow,  

DLR